Regional Weather Roundup
Issued by NWS Northern Indiana

Home | Current Version | Previous Version | Text Only | Print | Product List | Glossary On
Versions: 1 2 3 4 5 6 7 8 9 10 11 12 13 14 15 16 17 18 19 20 21 22 23 24 25 26 27 28 29 30 31 32 33 34 35 36 37 38 39 40 41 42 43 44 45 46 47 48 49 50
000
ASUS43 KIWX 040300
RWRIWX

KIWX WEATHER ROUNDUP
NATIONAL WEATHER SERVICE NORTHERN INDIANA
1100 PM EDT TUE MAY 03 2016

NOTE: "FAIR" INDICATES FEW OR NO CLOUDS BELOW 12,000 FEET WITH NO
SIGNIFICANT WEATHER AND/OR OBSTRUCTIONS TO VISIBILITY.

* THESE STATIONS ARE NOT UNDER NWS QUALITY CONTROL. THEY ALSO MAY NOT
  REPORT WEATHER SUCH AS PRECIPITATION OR FOG.

INZ001>027-040400-
NORTHERN INDIANA

CITY           SKY/WX    TMP DP  RH WIND       PRES   REMARKS
GARY*          MOCLDY    61  46  59 SW3       29.77
SOUTH BEND     CLOUDY    57  41  55 SW8       29.77F
GOSHEN         CLOUDY    56  42  59 S8        29.78F
ANGOLA*        CLOUDY    54  45  71 SW7       29.78F
FORT WAYNE     MOCLDY    51  44  77 SW9       29.81F
PERU/GRISSOM   MOCLDY    52  46  82 S9        29.80F

$$
INZ028>050-040400-
CENTRAL INDIANA

CITY           SKY/WX    TMP DP  RH WIND       PRES   REMARKS
LAFAYETTE      CLOUDY    53  43  68 W3        29.82F
KOKOMO*        MOCLDY    52  45  76 S9        29.82S
MUNCIE*        PTCLDY    52  43  71 S5        29.84F
INDIANAPOLIS   CLOUDY    53  42  66 S8        29.84F

$$
MIZ043>046-050>051-056>058-064>065-071>073-077>080-040400-
SOUTHWEST LOWER MICHIGAN

CITY           SKY/WX    TMP DP  RH WIND       PRES   REMARKS
BATTLE CREEK   CLOUDY    56  37  49 S8        29.75F
BENTON HARBOR  CLOUDY    59  40  49 S8        29.73F
COLDWATER*     CLOUDY    54  38  55 CALM      29.77F
HILLSDALE*     CLOUDY    54  35  48 S6        29.78S
HOLLAND        CLOUDY    59  38  45 SW12      29.71F
GRAND RAPIDS   CLOUDY    58  38  47 S9        29.71F
KALAMAZOO      CLOUDY    57  38  48 S8        29.75F
STURGIS*       CLOUDY    54  40  59 S5        29.76F
THREE RIVERS*  CLOUDY    56  40  54 S6        29.76F

$$
OHZ001>008-015>018-024>025-040400-
NORTHWEST OHIO

CITY           SKY/WX    TMP DP  RH WIND       PRES   REMARKS
DEFIANCE       CLEAR     52  43  71 SW7       29.80F
FINDLAY        CLEAR     49  42  77 SW7       29.81F
TOLEDO EXPRESS CLEAR     51  40  65 S6        29.79F
TOLEDO METCALF CLEAR     52  42  69 S7        29.80F
LIMA           CLEAR     51  43  74 S6        29.82F

$$
AND FOR LAKE MICHIGAN COASTAL AND OPEN LAKE BUOY OBSERVATIONS

STATION/POSITION TEMP    WIND        PRES    VSBY  WAVE
                 AIR SEA DIR/SP/G                  HT/PER
                 (F)     (DEG/KT/KT) (MB)    (MI)  (FT/S)
CALUMET HARBOR    62                 1007.3F
MICHIGAN CITY     61     180/  9/  9   N/A
BURNS HARBOR      62     220/  9/ 12 1008.8S
SAINT JOSEPH      61     180/  8/ 11 1008.5R
SOUTH LAKE BUOY   46 41  180/ 12/ 12 1006.1          1/ 3
4 MI NW BRIDGMAN  54 50                N/A           1

$$
&&




USA.gov is the U.S. government's official web portal to all federal, state and local government web resources and services.